owner,sensor,date,latitude,longitude,vertical_datum,sea_water_practical_salinity,qcFlag 
LUMCON,ioos:station:LUMCON:102:1,2016-01-01T05:00:00Z,29.1870,-90.6093,2.13,16.95,1111122 
LUMCON,ioos:station:LUMCON:102:1,2016-01-01T05:15:00Z,29.1870,-90.6093,2.12,16.96,1111122 
LUMCON,ioos:station:LUMCON:102:1,2016-01-01T05:30:00Z,29.1870,-90.6093,2.12,17.0,1111122 
LUMCON,ioos:station:LUMCON:102:1,2016-01-01T05:45:00Z,29.1870,-90.6093,2.11,16.94,1111122 
LUMCON,ioos:station:LUMCON:102:1,2016-01-01T06:00:00Z,29.1870,-90.6093,2.15,16.66,1111122 
LUMCON,ioos:station:LUMCON:102:1,2016-01-01T06:15:00Z,29.1870,-90.6093,2.14,16.47,1111122 
LUMCON,ioos:station:LUMCON:102:1,2016-01-01T06:30:00Z,29.1870,-90.6093,2.15,16.1,1111122 
LUMCON,ioos:station:LUMCON:102:1,2016-01-01T06:45:00Z,29.1870,-90.6093,2.13,15.88,1111122 
LUMCON,ioos:station:LUMCON:102:1,2016-01-01T07:00:00Z,29.1870,-90.6093,2.12,15.84,1111122 
LUMCON,ioos:station:LUMCON:102:1,2016-01-01T07:15:00Z,29.1870,-90.6093,2.12,15.61,1111122 
LUMCON,ioos:station:LUMCON:102:1,2016-01-01T07:30:00Z,29.1870,-90.6093,2.11,15.66,1111122 
LUMCON,ioos:station:LUMCON:102:1,2016-01-01T07:45:00Z,29.1870,-90.6093,2.1,15.56,1111122 
LUMCON,ioos:station:LUMCON:102:1,2016-01-01T08:00:00Z,29.1870,-90.6093,2.09,15.52,1111122 
LUMCON,ioos:station:LUMCON:102:1,2016-01-01T08:15:00Z,29.1870,-90.6093,2.08,15.43,1111122 
LUMCON,ioos:station:LUMCON:102:1,2016-01-01T08:30:00Z,29.1870,-90.6093,2.09,15.41,1111122 
LUMCON,ioos:station:LUMCON:102:1,2016-01-01T08:45:00Z,29.1870,-90.6093,2.07,15.39,1111122 
LUMCON,ioos:station:LUMCON:102:1,2016-01-01T09:00:00Z,29.1870,-90.6093,2.05,15.3,1111122 
LUMCON,ioos:station:LUMCON:102:1,2016-01-01T09:15:00Z,29.1870,-90.6093,2.04,15.29,1111122 
LUMCON,ioos:station:LUMCON:102:1,2016-01-01T09:30:00Z,29.1870,-90.6093,2.03,15.22,1111122 
LUMCON,ioos:station:LUMCON:102:1,2016-01-01T09:45:00Z,29.1870,-90.6093,2.01,15.13,1111122 
LUMCON,ioos:station:LUMCON:102:1,2016-01-01T10:00:00Z,29.1870,-90.6093,1.99,15.09,1111122 
LUMCON,ioos:station:LUMCON:102:1,2016-01-01T10:15:00Z,29.1870,-90.6093,1.99,15.03,1111122 
LUMCON,ioos:station:LUMCON:102:1,2016-01-01T10:30:00Z,29.1870,-90.6093,1.96,15.0,1111122 
LUMCON,ioos:station:LUMCON:102:1,2016-01-01T10:45:00Z,29.1870,-90.6093,1.96,14.89,1111122 
LUMCON,ioos:station:LUMCON:102:1,2016-01-01T11:00:00Z,29.1870,-90.6093,1.94,14.54,1111122 
LUMCON,ioos:station:LUMCON:102:1,2016-01-01T11:15:00Z,29.1870,-90.6093,1.93,14.32,1111122 
LUMCON,ioos:station:LUMCON:102:1,2016-01-01T11:30:00Z,29.1870,-90.6093,1.93,14.09,1111122 
LUMCON,ioos:station:LUMCON:102:1,2016-01-01T11:45:00Z,29.1870,-90.6093,1.92,13.81,1111122 
LUMCON,ioos:station:LUMCON:102:1,2016-01-01T12:00:00Z,29.1870,-90.6093,1.91,13.79,1111122 
LUMCON,ioos:station:LUMCON:102:1,2016-01-01T12:15:00Z,29.1870,-90.6093,1.91,13.83,1111122 
LUMCON,ioos:station:LUMCON:102:1,2016-01-01T12:30:00Z,29.1870,-90.6093,1.91,13.88,1111122 
LUMCON,ioos:station:LUMCON:102:1,2016-01-01T12:45:00Z,29.1870,-90.6093,1.9,13.88,1111122 
LUMCON,ioos:station:LUMCON:102:1,2016-01-01T13:00:00Z,29.1870,-90.6093,1.92,13.73,1111122 
LUMCON,ioos:station:LUMCON:102:1,2016-01-01T13:15:00Z,29.1870,-90.6093,1.91,13.62,1111122 
LUMCON,ioos:station:LUMCON:102:1,2016-01-01T13:30:00Z,29.1870,-90.6093,1.92,13.53,1111122 
LUMCON,ioos:station:LUMCON:102:1,2016-01-01T13:45:00Z,29.1870,-90.6093,1.9,13.7,1111122 
LUMCON,ioos:station:LUMCON:102:1,2016-01-01T14:00:00Z,29.1870,-90.6093,1.92,13.91,1111122 
LUMCON,ioos:station:LUMCON:102:1,2016-01-01T14:15:00Z,29.1870,-90.6093,1.97,14.0,1111122 
LUMCON,ioos:station:LUMCON:102:1,2016-01-01T14:30:00Z,29.1870,-90.6093,1.97,14.1,1111122 
LUMCON,ioos:station:LUMCON:102:1,2016-01-01T14:45:00Z,29.1870,-90.6093,1.98,14.05,1111122 
LUMCON,ioos:station:LUMCON:102:1,2016-01-01T15:00:00Z,29.1870,-90.6093,2.0,13.93,1111122 
LUMCON,ioos:station:LUMCON:102:1,2016-01-01T15:15:00Z,29.1870,-90.6093,1.99,14.01,1111122 
LUMCON,ioos:station:LUMCON:102:1,2016-01-01T15:30:00Z,29.1870,-90.6093,1.99,14.05,1111122 
LUMCON,ioos:station:LUMCON:102:1,2016-01-01T15:45:00Z,29.1870,-90.6093,1.99,14.17,1111122 
LUMCON,ioos:station:LUMCON:102:1,2016-01-01T16:00:00Z,29.1870,-90.6093,1.99,14.18,1111122 
LUMCON,ioos:station:LUMCON:102:1,2016-01-01T16:15:00Z,29.1870,-90.6093,1.99,14.47,1111122 
LUMCON,ioos:station:LUMCON:102:1,2016-01-01T16:30:00Z,29.1870,-90.6093,2.0,14.9,1111122 
LUMCON,ioos:station:LUMCON:102:1,2016-01-01T16:45:00Z,29.1870,-90.6093,1.97,15.15,1111122 
LUMCON,ioos:station:LUMCON:102:1,2016-01-01T17:00:00Z,29.1870,-90.6093,1.92,15.42,1111122 
LUMCON,ioos:station:LUMCON:102:1,2016-01-01T17:15:00Z,29.1870,-90.6093,1.92,15.63,1111122 
LUMCON,ioos:station:LUMCON:102:1,2016-01-01T17:30:00Z,29.1870,-90.6093,1.92,15.36,1111122 
LUMCON,ioos:station:LUMCON:102:1,2016-01-01T17:45:00Z,29.1870,-90.6093,1.92,14.83,1111122 
LUMCON,ioos:station:LUMCON:102:1,2016-01-01T18:00:00Z,29.1870,-90.6093,1.93,14.64,1111122 
LUMCON,ioos:station:LUMCON:102:1,2016-01-01T18:15:00Z,29.1870,-90.6093,1.94,14.61,1111122 
LUMCON,ioos:station:LUMCON:102:1,2016-01-01T18:30:00Z,29.1870,-90.6093,1.96,14.76,1111122 
LUMCON,ioos:station:LUMCON:102:1,2016-01-01T18:45:00Z,29.1870,-90.6093,1.99,14.92,1111122 
LUMCON,ioos:station:LUMCON:102:1,2016-01-01T19:00:00Z,29.1870,-90.6093,1.98,15.17,1111122 
LUMCON,ioos:station:LUMCON:102:1,2016-01-01T19:15:00Z,29.1870,-90.6093,2.01,15.47,1111122 
LUMCON,ioos:station:LUMCON:102:1,2016-01-01T19:30:00Z,29.1870,-90.6093,2.0,15.7,1111122 
LUMCON,ioos:station:LUMCON:102:1,2016-01-01T19:45:00Z,29.1870,-90.6093,2.02,15.9,1111122 
LUMCON,ioos:station:LUMCON:102:1,2016-01-01T20:00:00Z,29.1870,-90.6093,2.06,16.13,1111122 
LUMCON,ioos:station:LUMCON:102:1,2016-01-01T20:15:00Z,29.1870,-90.6093,2.05,16.54,1111122 
LUMCON,ioos:station:LUMCON:102:1,2016-01-01T20:30:00Z,29.1870,-90.6093,2.07,16.58,1111122 
LUMCON,ioos:station:LUMCON:102:1,2016-01-01T20:45:00Z,29.1870,-90.6093,2.08,16.77,1111122 
LUMCON,ioos:station:LUMCON:102:1,2016-01-01T21:00:00Z,29.1870,-90.6093,2.04,16.76,1111122 
LUMCON,ioos:station:LUMCON:102:1,2016-01-01T21:15:00Z,29.1870,-90.6093,2.05,16.78,1111122 
LUMCON,ioos:station:LUMCON:102:1,2016-01-01T21:30:00Z,29.1870,-90.6093,2.06,16.66,1111122 
LUMCON,ioos:station:LUMCON:102:1,2016-01-01T21:45:00Z,29.1870,-90.6093,2.05,16.56,1111122 
LUMCON,ioos:station:LUMCON:102:1,2016-01-01T22:00:00Z,29.1870,-90.6093,2.06,16.54,1111122 
LUMCON,ioos:station:LUMCON:102:1,2016-01-01T22:15:00Z,29.1870,-90.6093,2.04,16.4,1111122 
LUMCON,ioos:station:LUMCON:102:1,2016-01-01T22:30:00Z,29.1870,-90.6093,2.06,16.29,1111122 
LUMCON,ioos:station:LUMCON:102:1,2016-01-01T22:45:00Z,29.1870,-90.6093,2.08,16.26,1111122 
LUMCON,ioos:station:LUMCON:102:1,2016-01-01T23:00:00Z,29.1870,-90.6093,2.07,16.42,1111122 
LUMCON,ioos:station:LUMCON:102:1,2016-01-01T23:15:00Z,29.1870,-90.6093,2.08,16.45,1111122 
LUMCON,ioos:station:LUMCON:102:1,2016-01-01T23:30:00Z,29.1870,-90.6093,2.08,16.58,1111122 
LUMCON,ioos:station:LUMCON:102:1,2016-01-01T23:45:00Z,29.1870,-90.6093,2.07,16.6,1111122 
LUMCON,ioos:station:LUMCON:102:1,2016-01-02T05:00:00Z,29.1870,-90.6093,2.05,17.56,1111122 
LUMCON,ioos:station:LUMCON:102:1,2016-01-02T05:15:00Z,29.1870,-90.6093,2.05,17.56,1111122 
LUMCON,ioos:station:LUMCON:102:1,2016-01-02T05:30:00Z,29.1870,-90.6093,2.05,17.6,1111122 
LUMCON,ioos:station:LUMCON:102:1,2016-01-02T05:45:00Z,29.1870,-90.6093,2.03,17.61,1111122 
LUMCON,ioos:station:LUMCON:102:1,2016-01-02T06:00:00Z,29.1870,-90.6093,2.04,17.69,1111122 
LUMCON,ioos:station:LUMCON:102:1,2016-01-02T06:15:00Z,29.1870,-90.6093,2.02,17.78,1111122 
LUMCON,ioos:station:LUMCON:102:1,2016-01-02T06:30:00Z,29.1870,-90.6093,2.0,17.78,1111122 
LUMCON,ioos:station:LUMCON:102:1,2016-01-02T06:45:00Z,29.1870,-90.6093,2.03,17.75,1111122 
LUMCON,ioos:station:LUMCON:102:1,2016-01-02T07:00:00Z,29.1870,-90.6093,2.03,17.71,1111122 
LUMCON,ioos:station:LUMCON:102:1,2016-01-02T07:15:00Z,29.1870,-90.6093,2.02,17.76,1111122 
LUMCON,ioos:station:LUMCON:102:1,2016-01-02T07:30:00Z,29.1870,-90.6093,2.05,17.85,1111122 
LUMCON,ioos:station:LUMCON:102:1,2016-01-02T07:45:00Z,29.1870,-90.6093,2.01,17.89,1111122 
LUMCON,ioos:station:LUMCON:102:1,2016-01-02T08:00:00Z,29.1870,-90.6093,2.03,17.85,1111122 
LUMCON,ioos:station:LUMCON:102:1,2016-01-02T08:15:00Z,29.1870,-90.6093,2.03,17.84,1111122 
LUMCON,ioos:station:LUMCON:102:1,2016-01-02T08:30:00Z,29.1870,-90.6093,2.0,17.84,1111122 
LUMCON,ioos:station:LUMCON:102:1,2016-01-02T08:45:00Z,29.1870,-90.6093,2.0,17.89,1111122 
LUMCON,ioos:station:LUMCON:102:1,2016-01-02T09:00:00Z,29.1870,-90.6093,1.99,17.9,1111122 
LUMCON,ioos:station:LUMCON:102:1,2016-01-02T09:15:00Z,29.1870,-90.6093,2.0,17.76,1111122 
LUMCON,ioos:station:LUMCON:102:1,2016-01-02T09:30:00Z,29.1870,-90.6093,1.98,17.77,1111122 
LUMCON,ioos:station:LUMCON:102:1,2016-01-02T09:45:00Z,29.1870,-90.6093,1.98,17.73,1111122 
LUMCON,ioos:station:LUMCON:102:1,2016-01-02T10:00:00Z,29.1870,-90.6093,1.98,17.74,1111122 
LUMCON,ioos:station:LUMCON:102:1,2016-01-02T10:15:00Z,29.1870,-90.6093,1.99,17.86,1111122 
LUMCON,ioos:station:LUMCON:102:1,2016-01-02T10:30:00Z,29.1870,-90.6093,1.99,17.63,1111122 
LUMCON,ioos:station:LUMCON:102:1,2016-01-02T10:45:00Z,29.1870,-90.6093,1.98,17.48,1111122 
LUMCON,ioos:station:LUMCON:102:1,2016-01-02T11:00:00Z,29.1870,-90.6093,1.97,17.24,1111122 
LUMCON,ioos:station:LUMCON:102:1,2016-01-02T11:15:00Z,29.1870,-90.6093,2.01,17.03,1111122 
LUMCON,ioos:station:LUMCON:102:1,2016-01-02T11:30:00Z,29.1870,-90.6093,1.99,16.76,1111122 
LUMCON,ioos:station:LUMCON:102:1,2016-01-02T11:45:00Z,29.1870,-90.6093,1.98,16.52,1111122 
LUMCON,ioos:station:LUMCON:102:1,2016-01-02T12:00:00Z,29.1870,-90.6093,1.98,16.18,1111122 
LUMCON,ioos:station:LUMCON:102:1,2016-01-02T12:15:00Z,29.1870,-90.6093,1.99,15.97,1111122 
LUMCON,ioos:station:LUMCON:102:1,2016-01-02T12:30:00Z,29.1870,-90.6093,1.98,16.56,1111122 
LUMCON,ioos:station:LUMCON:102:1,2016-01-02T12:45:00Z,29.1870,-90.6093,1.93,17.01,1111122 
LUMCON,ioos:station:LUMCON:102:1,2016-01-02T13:00:00Z,29.1870,-90.6093,1.97,17.02,1111122 
LUMCON,ioos:station:LUMCON:102:1,2016-01-02T13:15:00Z,29.1870,-90.6093,1.95,16.97,1111122 
LUMCON,ioos:station:LUMCON:102:1,2016-01-02T13:30:00Z,29.1870,-90.6093,1.94,16.98,1111122 
LUMCON,ioos:station:LUMCON:102:1,2016-01-02T13:45:00Z,29.1870,-90.6093,1.97,16.82,1111122 
LUMCON,ioos:station:LUMCON:102:1,2016-01-02T14:00:00Z,29.1870,-90.6093,1.99,16.6,1111122 
LUMCON,ioos:station:LUMCON:102:1,2016-01-02T14:15:00Z,29.1870,-90.6093,1.97,16.51,1111122 
LUMCON,ioos:station:LUMCON:102:1,2016-01-02T14:30:00Z,29.1870,-90.6093,2.0,15.85,1111122 
LUMCON,ioos:station:LUMCON:102:1,2016-01-02T14:45:00Z,29.1870,-90.6093,1.97,15.85,1111122 
LUMCON,ioos:station:LUMCON:102:1,2016-01-02T15:00:00Z,29.1870,-90.6093,1.98,15.38,1111122 
LUMCON,ioos:station:LUMCON:102:1,2016-01-02T15:15:00Z,29.1870,-90.6093,1.99,15.32,1111122 
LUMCON,ioos:station:LUMCON:102:1,2016-01-02T15:30:00Z,29.1870,-90.6093,1.96,14.99,1111122 
LUMCON,ioos:station:LUMCON:102:1,2016-01-02T15:45:00Z,29.1870,-90.6093,1.98,14.91,1111122 
LUMCON,ioos:station:LUMCON:102:1,2016-01-02T16:00:00Z,29.1870,-90.6093,2.02,14.77,1111122 
LUMCON,ioos:station:LUMCON:102:1,2016-01-02T16:15:00Z,29.1870,-90.6093,2.02,14.73,1111122 
LUMCON,ioos:station:LUMCON:102:1,2016-01-02T16:30:00Z,29.1870,-90.6093,2.04,14.68,1111122 
LUMCON,ioos:station:LUMCON:102:1,2016-01-02T16:45:00Z,29.1870,-90.6093,2.03,14.82,1111122 
LUMCON,ioos:station:LUMCON:102:1,2016-01-02T17:00:00Z,29.1870,-90.6093,2.06,14.84,1111122 
LUMCON,ioos:station:LUMCON:102:1,2016-01-02T17:15:00Z,29.1870,-90.6093,2.04,14.81,1111122 
LUMCON,ioos:station:LUMCON:102:1,2016-01-02T17:30:00Z,29.1870,-90.6093,2.01,14.79,1111122 
LUMCON,ioos:station:LUMCON:102:1,2016-01-02T17:45:00Z,29.1870,-90.6093,2.03,14.75,1111122 
LUMCON,ioos:station:LUMCON:102:1,2016-01-02T18:00:00Z,29.1870,-90.6093,2.02,14.74,1111122 
LUMCON,ioos:station:LUMCON:102:1,2016-01-02T18:15:00Z,29.1870,-90.6093,1.99,14.73,1111122 
LUMCON,ioos:station:LUMCON:102:1,2016-01-02T18:30:00Z,29.1870,-90.6093,2.0,14.83,1111122 
LUMCON,ioos:station:LUMCON:102:1,2016-01-02T18:45:00Z,29.1870,-90.6093,2.04,14.85,1111122 
LUMCON,ioos:station:LUMCON:102:1,2016-01-02T19:00:00Z,29.1870,-90.6093,2.06,14.92,1111122 
LUMCON,ioos:station:LUMCON:102:1,2016-01-02T19:15:00Z,29.1870,-90.6093,2.05,14.96,1111122 
LUMCON,ioos:station:LUMCON:102:1,2016-01-02T19:30:00Z,29.1870,-90.6093,2.08,15.29,1111122 
LUMCON,ioos:station:LUMCON:102:1,2016-01-02T19:45:00Z,29.1870,-90.6093,2.08,15.86,1111122 
LUMCON,ioos:station:LUMCON:102:1,2016-01-02T20:00:00Z,29.1870,-90.6093,2.11,16.09,1111122 
LUMCON,ioos:station:LUMCON:102:1,2016-01-02T20:15:00Z,29.1870,-90.6093,2.1,16.23,1111122 
LUMCON,ioos:station:LUMCON:102:1,2016-01-02T20:30:00Z,29.1870,-90.6093,2.07,16.59,1111122 
LUMCON,ioos:station:LUMCON:102:1,2016-01-02T20:45:00Z,29.1870,-90.6093,2.07,16.82,1111122 
LUMCON,ioos:station:LUMCON:102:1,2016-01-02T21:00:00Z,29.1870,-90.6093,2.1,16.99,1111122 
LUMCON,ioos:station:LUMCON:102:1,2016-01-02T21:15:00Z,29.1870,-90.6093,2.1,17.24,1111122 
LUMCON,ioos:station:LUMCON:102:1,2016-01-02T21:30:00Z,29.1870,-90.6093,2.06,17.43,1111122 
LUMCON,ioos:station:LUMCON:102:1,2016-01-02T21:45:00Z,29.1870,-90.6093,2.09,17.63,1111122 
LUMCON,ioos:station:LUMCON:102:1,2016-01-02T22:00:00Z,29.1870,-90.6093,2.13,17.49,1111122 
LUMCON,ioos:station:LUMCON:102:1,2016-01-02T22:15:00Z,29.1870,-90.6093,2.12,17.38,1111122 
LUMCON,ioos:station:LUMCON:102:1,2016-01-02T22:30:00Z,29.1870,-90.6093,2.13,17.17,1111122 
LUMCON,ioos:station:LUMCON:102:1,2016-01-02T22:45:00Z,29.1870,-90.6093,2.11,17.13,1111122 
LUMCON,ioos:station:LUMCON:102:1,2016-01-02T23:00:00Z,29.1870,-90.6093,2.13,17.4,1111122 
LUMCON,ioos:station:LUMCON:102:1,2016-01-02T23:15:00Z,29.1870,-90.6093,2.13,17.61,1111122 
LUMCON,ioos:station:LUMCON:102:1,2016-01-02T23:30:00Z,29.1870,-90.6093,2.1,17.73,1111122 
LUMCON,ioos:station:LUMCON:102:1,2016-01-02T23:45:00Z,29.1870,-90.6093,2.15,17.76,1111122 
LUMCON,ioos:station:LUMCON:102:1,2016-01-03T05:00:00Z,29.1870,-90.6093,2.11,19.18,1111122 
LUMCON,ioos:station:LUMCON:102:1,2016-01-03T05:15:00Z,29.1870,-90.6093,2.1,19.28,1111122 
LUMCON,ioos:station:LUMCON:102:1,2016-01-03T05:30:00Z,29.1870,-90.6093,2.09,19.33,1111122 
LUMCON,ioos:station:LUMCON:102:1,2016-01-03T05:45:00Z,29.1870,-90.6093,2.1,19.37,1111122 
LUMCON,ioos:station:LUMCON:102:1,2016-01-03T06:00:00Z,29.1870,-90.6093,2.09,19.42,1111122 
LUMCON,ioos:station:LUMCON:102:1,2016-01-03T06:15:00Z,29.1870,-90.6093,2.09,19.36,1111122 
LUMCON,ioos:station:LUMCON:102:1,2016-01-03T06:30:00Z,29.1870,-90.6093,2.09,18.36,1111122 
LUMCON,ioos:station:LUMCON:102:1,2016-01-03T06:45:00Z,29.1870,-90.6093,2.07,18.68,1111122 
LUMCON,ioos:station:LUMCON:102:1,2016-01-03T07:00:00Z,29.1870,-90.6093,2.09,18.53,1111122 
LUMCON,ioos:station:LUMCON:102:1,2016-01-03T07:15:00Z,29.1870,-90.6093,2.09,18.6,1111122 
LUMCON,ioos:station:LUMCON:102:1,2016-01-03T07:30:00Z,29.1870,-90.6093,2.05,18.83,1111122 
LUMCON,ioos:station:LUMCON:102:1,2016-01-03T07:45:00Z,29.1870,-90.6093,2.05,18.75,1111122 
LUMCON,ioos:station:LUMCON:102:1,2016-01-03T08:00:00Z,29.1870,-90.6093,2.05,18.89,1111122 
LUMCON,ioos:station:LUMCON:102:1,2016-01-03T08:15:00Z,29.1870,-90.6093,2.04,18.97,1111122 
LUMCON,ioos:station:LUMCON:102:1,2016-01-03T08:30:00Z,29.1870,-90.6093,2.06,18.45,1111122 
LUMCON,ioos:station:LUMCON:102:1,2016-01-03T08:45:00Z,29.1870,-90.6093,2.04,17.81,1111122 
LUMCON,ioos:station:LUMCON:102:1,2016-01-03T09:00:00Z,29.1870,-90.6093,2.02,17.56,1111122 
LUMCON,ioos:station:LUMCON:102:1,2016-01-03T09:15:00Z,29.1870,-90.6093,2.05,16.73,1111122 
LUMCON,ioos:station:LUMCON:102:1,2016-01-03T09:30:00Z,29.1870,-90.6093,2.03,18.2,1111122 
LUMCON,ioos:station:LUMCON:102:1,2016-01-03T09:45:00Z,29.1870,-90.6093,2.03,18.58,1111122 
LUMCON,ioos:station:LUMCON:102:1,2016-01-03T10:00:00Z,29.1870,-90.6093,2.02,18.68,1111122 
LUMCON,ioos:station:LUMCON:102:1,2016-01-03T10:15:00Z,29.1870,-90.6093,2.0,18.69,1111122 
LUMCON,ioos:station:LUMCON:102:1,2016-01-03T10:30:00Z,29.1870,-90.6093,2.03,18.69,1111122 
LUMCON,ioos:station:LUMCON:102:1,2016-01-03T10:45:00Z,29.1870,-90.6093,2.02,18.44,1111122 
LUMCON,ioos:station:LUMCON:102:1,2016-01-03T11:00:00Z,29.1870,-90.6093,2.02,18.51,1111122 
LUMCON,ioos:station:LUMCON:102:1,2016-01-03T11:15:00Z,29.1870,-90.6093,2.01,18.36,1111122 
LUMCON,ioos:station:LUMCON:102:1,2016-01-03T11:30:00Z,29.1870,-90.6093,2.01,17.98,1111122 
LUMCON,ioos:station:LUMCON:102:1,2016-01-03T11:45:00Z,29.1870,-90.6093,2.02,18.02,1111122 
LUMCON,ioos:station:LUMCON:102:1,2016-01-03T12:00:00Z,29.1870,-90.6093,2.02,18.11,1111122 
LUMCON,ioos:station:LUMCON:102:1,2016-01-03T12:15:00Z,29.1870,-90.6093,2.03,18.14,1111122 
LUMCON,ioos:station:LUMCON:102:1,2016-01-03T12:30:00Z,29.1870,-90.6093,2.01,18.16,1111122 
LUMCON,ioos:station:LUMCON:102:1,2016-01-03T12:45:00Z,29.1870,-90.6093,2.04,18.22,1111122 
LUMCON,ioos:station:LUMCON:102:1,2016-01-03T13:00:00Z,29.1870,-90.6093,2.03,18.2,1111122 
LUMCON,ioos:station:LUMCON:102:1,2016-01-03T13:15:00Z,29.1870,-90.6093,2.03,18.17,1111122 
LUMCON,ioos:station:LUMCON:102:1,2016-01-03T13:30:00Z,29.1870,-90.6093,2.01,18.2,1111122 
LUMCON,ioos:station:LUMCON:102:1,2016-01-03T13:45:00Z,29.1870,-90.6093,2.06,18.24,1111122 
LUMCON,ioos:station:LUMCON:102:1,2016-01-03T14:00:00Z,29.1870,-90.6093,2.03,18.21,1111122 
LUMCON,ioos:station:LUMCON:102:1,2016-01-03T14:15:00Z,29.1870,-90.6093,2.03,18.2,1111122 
LUMCON,ioos:station:LUMCON:102:1,2016-01-03T14:30:00Z,29.1870,-90.6093,2.06,18.2,1111122 
LUMCON,ioos:station:LUMCON:102:1,2016-01-03T14:45:00Z,29.1870,-90.6093,2.07,18.21,1111122 
LUMCON,ioos:station:LUMCON:102:1,2016-01-03T15:00:00Z,29.1870,-90.6093,2.05,18.35,1111122 
LUMCON,ioos:station:LUMCON:102:1,2016-01-03T15:15:00Z,29.1870,-90.6093,2.06,18.46,1111122 
LUMCON,ioos:station:LUMCON:102:1,2016-01-03T15:30:00Z,29.1870,-90.6093,2.05,18.54,1111122 
LUMCON,ioos:station:LUMCON:102:1,2016-01-03T15:45:00Z,29.1870,-90.6093,2.06,18.67,1111122 
LUMCON,ioos:station:LUMCON:102:1,2016-01-03T16:00:00Z,29.1870,-90.6093,2.08,18.79,1111122 
LUMCON,ioos:station:LUMCON:102:1,2016-01-03T16:15:00Z,29.1870,-90.6093,2.09,19.0,1111122 
LUMCON,ioos:station:LUMCON:102:1,2016-01-03T16:30:00Z,29.1870,-90.6093,2.1,19.09,1111122 
LUMCON,ioos:station:LUMCON:102:1,2016-01-03T16:45:00Z,29.1870,-90.6093,2.08,19.13,1111122 
LUMCON,ioos:station:LUMCON:102:1,2016-01-03T17:00:00Z,29.1870,-90.6093,2.1,19.2,1111122 
LUMCON,ioos:station:LUMCON:102:1,2016-01-03T17:15:00Z,29.1870,-90.6093,2.09,19.29,1111122 
LUMCON,ioos:station:LUMCON:102:1,2016-01-03T17:30:00Z,29.1870,-90.6093,2.09,19.43,1111122 
LUMCON,ioos:station:LUMCON:102:1,2016-01-03T17:45:00Z,29.1870,-90.6093,2.1,19.52,1111122 
LUMCON,ioos:station:LUMCON:102:1,2016-01-03T18:00:00Z,29.1870,-90.6093,2.11,19.6,1111122 
LUMCON,ioos:station:LUMCON:102:1,2016-01-03T18:15:00Z,29.1870,-90.6093,2.11,19.65,1111122 
LUMCON,ioos:station:LUMCON:102:1,2016-01-03T18:30:00Z,29.1870,-90.6093,2.12,19.74,1111122 
LUMCON,ioos:station:LUMCON:102:1,2016-01-03T18:45:00Z,29.1870,-90.6093,2.13,19.87,1111122 
LUMCON,ioos:station:LUMCON:102:1,2016-01-03T19:00:00Z,29.1870,-90.6093,2.13,20.0,1111122 
LUMCON,ioos:station:LUMCON:102:1,2016-01-03T19:15:00Z,29.1870,-90.6093,2.14,20.07,1111122 
LUMCON,ioos:station:LUMCON:102:1,2016-01-03T19:30:00Z,29.1870,-90.6093,2.15,20.15,1111122 
LUMCON,ioos:station:LUMCON:102:1,2016-01-03T19:45:00Z,29.1870,-90.6093,2.16,20.23,1111122 
LUMCON,ioos:station:LUMCON:102:1,2016-01-03T20:00:00Z,29.1870,-90.6093,2.16,20.23,1111122 
LUMCON,ioos:station:LUMCON:102:1,2016-01-03T20:15:00Z,29.1870,-90.6093,2.17,20.27,1111122 
LUMCON,ioos:station:LUMCON:102:1,2016-01-03T20:30:00Z,29.1870,-90.6093,2.16,20.37,1111122 
LUMCON,ioos:station:LUMCON:102:1,2016-01-03T20:45:00Z,29.1870,-90.6093,2.16,20.47,1111122 
LUMCON,ioos:station:LUMCON:102:1,2016-01-03T21:00:00Z,29.1870,-90.6093,2.16,20.48,1111122 
LUMCON,ioos:station:LUMCON:102:1,2016-01-03T21:15:00Z,29.1870,-90.6093,2.19,20.5,1111122 
LUMCON,ioos:station:LUMCON:102:1,2016-01-03T21:30:00Z,29.1870,-90.6093,2.17,20.58,1111122 
LUMCON,ioos:station:LUMCON:102:1,2016-01-03T21:45:00Z,29.1870,-90.6093,2.18,20.53,1111122 
LUMCON,ioos:station:LUMCON:102:1,2016-01-03T22:00:00Z,29.1870,-90.6093,2.17,20.63,1111122 
LUMCON,ioos:station:LUMCON:102:1,2016-01-03T22:15:00Z,29.1870,-90.6093,2.17,20.65,1111122 
LUMCON,ioos:station:LUMCON:102:1,2016-01-03T22:30:00Z,29.1870,-90.6093,2.17,20.71,1111122 
LUMCON,ioos:station:LUMCON:102:1,2016-01-03T22:45:00Z,29.1870,-90.6093,2.18,20.76,1111122 
LUMCON,ioos:station:LUMCON:102:1,2016-01-03T23:00:00Z,29.1870,-90.6093,2.17,20.79,1111122 
LUMCON,ioos:station:LUMCON:102:1,2016-01-03T23:15:00Z,29.1870,-90.6093,2.18,20.77,1111122 
LUMCON,ioos:station:LUMCON:102:1,2016-01-03T23:30:00Z,29.1870,-90.6093,2.18,20.72,1111122 
LUMCON,ioos:station:LUMCON:102:1,2016-01-03T23:45:00Z,29.1870,-90.6093,2.18,20.73,1111122 
LUMCON,ioos:station:LUMCON:102:1,2016-01-04T05:00:00Z,29.1870,-90.6093,2.01,21.07,1111122 
LUMCON,ioos:station:LUMCON:102:1,2016-01-04T05:15:00Z,29.1870,-90.6093,1.99,21.05,1111122 
LUMCON,ioos:station:LUMCON:102:1,2016-01-04T05:30:00Z,29.1870,-90.6093,1.97,21.16,1111122 
LUMCON,ioos:station:LUMCON:102:1,2016-01-04T05:45:00Z,29.1870,-90.6093,1.95,21.18,1111122 
LUMCON,ioos:station:LUMCON:102:1,2016-01-04T06:00:00Z,29.1870,-90.6093,1.94,21.27,1111122 
LUMCON,ioos:station:LUMCON:102:1,2016-01-04T06:15:00Z,29.1870,-90.6093,1.93,21.26,1111122 
LUMCON,ioos:station:LUMCON:102:1,2016-01-04T06:30:00Z,29.1870,-90.6093,1.93,21.28,1111122 
LUMCON,ioos:station:LUMCON:102:1,2016-01-04T06:45:00Z,29.1870,-90.6093,1.92,21.19,1111122 
LUMCON,ioos:station:LUMCON:102:1,2016-01-04T07:00:00Z,29.1870,-90.6093,1.91,20.92,1111122 
LUMCON,ioos:station:LUMCON:102:1,2016-01-04T07:15:00Z,29.1870,-90.6093,1.9,21.04,1111122 
LUMCON,ioos:station:LUMCON:102:1,2016-01-04T07:30:00Z,29.1870,-90.6093,1.9,20.89,1111122 
LUMCON,ioos:station:LUMCON:102:1,2016-01-04T07:45:00Z,29.1870,-90.6093,1.88,21.14,1111122 
LUMCON,ioos:station:LUMCON:102:1,2016-01-04T08:00:00Z,29.1870,-90.6093,1.89,21.24,1111122 
LUMCON,ioos:station:LUMCON:102:1,2016-01-04T08:15:00Z,29.1870,-90.6093,1.87,21.24,1111122 
LUMCON,ioos:station:LUMCON:102:1,2016-01-04T08:30:00Z,29.1870,-90.6093,1.86,21.25,1111122 
LUMCON,ioos:station:LUMCON:102:1,2016-01-04T08:45:00Z,29.1870,-90.6093,1.86,21.27,1111122 
LUMCON,ioos:station:LUMCON:102:1,2016-01-04T09:00:00Z,29.1870,-90.6093,1.86,21.25,1111122 
LUMCON,ioos:station:LUMCON:102:1,2016-01-04T09:15:00Z,29.1870,-90.6093,1.85,21.3,1111122 
LUMCON,ioos:station:LUMCON:102:1,2016-01-04T09:30:00Z,29.1870,-90.6093,1.84,21.33,1111122 
LUMCON,ioos:station:LUMCON:102:1,2016-01-04T09:45:00Z,29.1870,-90.6093,1.84,21.29,1111122 
LUMCON,ioos:station:LUMCON:102:1,2016-01-04T10:00:00Z,29.1870,-90.6093,1.84,21.31,1111122 
LUMCON,ioos:station:LUMCON:102:1,2016-01-04T10:15:00Z,29.1870,-90.6093,1.83,21.25,1111122 
LUMCON,ioos:station:LUMCON:102:1,2016-01-04T10:30:00Z,29.1870,-90.6093,1.83,21.26,1111122 
LUMCON,ioos:station:LUMCON:102:1,2016-01-04T10:45:00Z,29.1870,-90.6093,1.84,21.17,1111122 
LUMCON,ioos:station:LUMCON:102:1,2016-01-04T11:00:00Z,29.1870,-90.6093,1.83,20.87,1111122 
LUMCON,ioos:station:LUMCON:102:1,2016-01-04T11:15:00Z,29.1870,-90.6093,1.84,21.05,1111122 
LUMCON,ioos:station:LUMCON:102:1,2016-01-04T11:30:00Z,29.1870,-90.6093,1.85,20.98,1111122 
LUMCON,ioos:station:LUMCON:102:1,2016-01-04T11:45:00Z,29.1870,-90.6093,1.85,21.04,1111122 
LUMCON,ioos:station:LUMCON:102:1,2016-01-04T12:00:00Z,29.1870,-90.6093,1.86,20.96,1111122 
LUMCON,ioos:station:LUMCON:102:1,2016-01-04T12:15:00Z,29.1870,-90.6093,1.87,20.95,1111122 
LUMCON,ioos:station:LUMCON:102:1,2016-01-04T12:30:00Z,29.1870,-90.6093,1.88,20.88,1111122 
LUMCON,ioos:station:LUMCON:102:1,2016-01-04T12:45:00Z,29.1870,-90.6093,1.9,20.79,1111122 
LUMCON,ioos:station:LUMCON:102:1,2016-01-04T13:00:00Z,29.1870,-90.6093,1.92,19.5,1111122 
LUMCON,ioos:station:LUMCON:102:1,2016-01-04T13:15:00Z,29.1870,-90.6093,1.93,19.14,1111122 
LUMCON,ioos:station:LUMCON:102:1,2016-01-04T13:30:00Z,29.1870,-90.6093,1.93,18.64,1111122 